Regional Weather Roundup
Issued by NWS

Current Version | Previous Version | Text Only | Print | Product List | Glossary On
Versions: 1 2 3 4 5 6 7 8 9 10 11 12 13 14 15 16 17 18 19 20 21 22 23 24 25 26 27 28 29 30 31 32 33 34 35 36 37 38 39 40 41 42 43 44 45 46 47 48 49 50
000
ASUS45 KREV 280810
RWRNV
NEVADA REGIONAL WEATHER ROUNDUP
NATIONAL WEATHER SERVICE RENO NV
1200 AM PST FRI NOV 28 2014

NOTE: "FAIR" INDICATES FEW OR NO CLOUDS BELOW 12,000 FEET WITH NO
SIGNIFICANT WEATHER AND/OR OBSTRUCTIONS TO VISIBILITY.

NVZ001-003-004-280900-
WESTERN NEVADA

CITY           SKY/WX    TMP DP  RH WIND       PRES   REMARKS
RENO           PTCLDY    47  16  29 N7        30.09S
CARSON CITY    FAIR      41  16  36 CALM      30.11F
MINDEN         FAIR      52  14  22 E6        30.12
SLIDE MTN        N/A     36  14  41 W55         N/A
PYRAMID LAKE     N/A     63 N/A N/A SW20        N/A
FALLON         MOCLDY    44  17  33 SE6       30.08S
LOVELOCK       MOCLDY    26  14  60 E5        30.07F
HAWTHORNE      CLEAR     43  18  36 CALM      30.12F
$$

NVZ002-CAZ072-073-280900-
NORTHERN AND CENTRAL SIERRA

CITY           SKY/WX    TMP DP  RH WIND       PRES   REMARKS
S. LAKE TAHOE  CLEAR     52  15  23 SE9G18    30.17F
TRUCKEE        CLEAR     48   7  18 S12G18    30.16F
SQUAW VLY 8000 NOT AVBL
SUSANVILLE     CLEAR     34  16  47 CALM      30.07
BLUE CANYON    CLEAR     50  20  30 SE8       30.19F
MAMMOTH LAKES  FAIR      32   9  37 NE3       30.27F
BRIDGEPORT     FAIR      52   7  16 SW9G28    30.17F
$$

NVZ030-031-036-280900-
NORTHERN NEVADA

CITY           SKY/WX    TMP DP  RH WIND       PRES   REMARKS
ELKO           MOCLDY    36  28  73 E5        30.11F
WINNEMUCCA     MOCLDY    45  23  42 S10       30.06F
WENDOVER       CLOUDY    36  27  69 CALM      30.09F
$$

NVZ035-037-280900-
CENTRAL NEVADA

CITY           SKY/WX    TMP DP  RH WIND       PRES   REMARKS
ELY            CLOUDY    39  12  33 SW6       30.22F
EUREKA           N/A     32  20  61 S6        30.19S
$$

NVZ013-014-280900-
SOUTH CENTRAL NEVADA

CITY           SKY/WX    TMP DP  RH WIND       PRES   REMARKS
TONOPAH        CLOUDY    34  12  40 N10       30.22F
$$

NVZ017-020-022-280900-
SOUTHERN NEVADA

CITY           SKY/WX    TMP DP  RH WIND       PRES   REMARKS
LAS VEGAS      PTCLDY    48  21  34 SW8       30.10F
N. LAS VEGAS   CLEAR     45  22  40 NW5       30.13F
NELLIS AFB     CLEAR     40  17  38 N1        30.14F
HENDERSON      CLEAR     44  17  34 S9        30.16F
MERCURY        PTCLDY    39  14  36 E3        30.16F
$$


USA.gov is the U.S. government's official web portal to all federal, state and local government web resources and services.